Weather History for Seward, AK

Change the Weather History Date:

Sunday, February 17, 2013

  Actual Average Record
Temperature  
Mean Temperature 32 °F -  
Max Temperature 37 °F 32 °F 45 °F (1993)
Min Temperature 28 °F 22 °F -1 °F (1982)
Degree Days  
Heating Degree Days 32    
Moisture  
Dew Point 24 °F    
Average Humidity 79    
Maximum Humidity 96    
Minimum Humidity 62    
Precipitation  
Precipitation 0.13 in - - ()
Sea Level Pressure  
Sea Level Pressure 29.56 in    
Wind  
Wind Speed 10 mph (North)    
Max Wind Speed 25 mph    
Max Gust Speed 41 mph    
Visibility 4 miles    
Events Snow    
Averages and records for this station are not official NWS values.
T = Trace of Precipitation, MM = Missing Value Source: NWS Daily Summary

Daily Weather History Graph

Daily Weather History Graph

Search for Another Location

Airport:

Trip Planner

Search our weather history database for the weather conditions in past years. The results will help you decide how hot, cold, wet, or windy it might be!

Date:

Astronomy

Feb. 17, 2013 Rise Set
Actual Time 8:29 AM AKST 5:55 PM AKST
Civil Twilight 7:45 AM AKST 6:38 PM AKST
Nautical Twilight 6:57 AM AKST 7:27 PM AKST
Astronomical Twilight 6:08 AM AKST 8:15 PM AKST
Moon 10:24 AM AKST 3:01 AM AKST
Length of Visible Light 10h 53m
Length of Day
9h 25m
Waxing Crescent, 50% of the Moon is Illuminated
Feb 17
Waxing Crescent
Feb 25
Full
Mar 4
Last Quarter
Mar 11
New
Mar 19
First Quarter

Hourly Weather History & Observations

Time (AKST) Temp. Windchill Dew Point Humidity Pressure Visibility Wind Dir Wind Speed Gust Speed Precip Events Conditions
12:03 AM 28.4 °F - 26.6 °F 93% 29.74 in 1.2 mi Calm Calm - 0.00 in Snow Light Snow
12:26 AM 28.4 °F - 26.6 °F 93% 29.73 in 1.8 mi Calm Calm - 0.00 in Snow Light Snow
12:53 AM 28.0 °F - 26.1 °F 92% 29.71 in 1.5 mi Calm Calm - 0.00 in Snow Light Snow
1:39 AM 28.4 °F - 26.6 °F 93% 29.69 in 2.5 mi Calm Calm - 0.00 in Snow Light Snow
1:53 AM 28.0 °F - 27.0 °F 96% 29.68 in 3.0 mi Calm Calm - 0.00 in Snow Light Snow
2:10 AM 28.4 °F - 26.6 °F 93% 29.67 in 4.0 mi Calm Calm - 0.00 in Snow Light Snow
3:16 AM 28.4 °F - 26.6 °F 93% 29.65 in 3.0 mi Calm Calm - 0.00 in Snow Light Snow
3:53 AM 28.9 °F - 27.0 °F 92% 29.63 in 4.0 mi Calm Calm - 0.00 in Snow Light Snow
4:03 AM 28.4 °F - 26.6 °F 93% 29.62 in 8.0 mi Calm Calm - 0.00 in Snow Light Snow
4:13 AM 28.4 °F - 26.6 °F 93% 29.61 in 10.0 mi Calm Calm - 0.00 in   Overcast
4:53 AM 30.0 °F 26.5 °F 27.0 °F 88% 29.60 in 10.0 mi NNW 3.5 mph - 0.00 in   Overcast
5:53 AM 33.1 °F 26.1 °F 28.0 °F 82% 29.59 in 10.0 mi North 8.1 mph - N/A   Overcast
6:53 AM 33.1 °F 26.1 °F 27.0 °F 78% 29.57 in 10.0 mi North 8.1 mph - N/A   Overcast
7:53 AM 34.0 °F 27.2 °F 27.0 °F 75% 29.55 in 10.0 mi North 8.1 mph - N/A   Overcast
8:53 AM 35.1 °F 27.4 °F 26.1 °F 70% 29.53 in 10.0 mi North 10.4 mph 17.3 mph N/A   Overcast
9:53 AM 36.0 °F 27.1 °F 25.0 °F 64% 29.51 in 10.0 mi NNW 13.8 mph - 0.04 in   Overcast
10:53 AM 37.0 °F 27.7 °F 25.0 °F 62% 29.49 in 10.0 mi North 16.1 mph 20.7 mph 0.04 in   Overcast
11:53 AM 37.0 °F 26.7 °F 26.1 °F 65% 29.47 in 10.0 mi North 19.6 mph 29.9 mph 0.04 in   Overcast
12:53 PM 36.0 °F 26.7 °F 27.0 °F 70% 29.47 in 10.0 mi North 15.0 mph 24.2 mph 0.01 in   Overcast
1:53 PM 35.1 °F 25.2 °F 27.0 °F 72% 29.47 in 4.0 mi NNW 16.1 mph 25.3 mph 0.00 in Snow Light Snow
2:28 PM 32.0 °F 19.2 °F 26.6 °F 80% 29.47 in 1.8 mi North 23.0 mph 29.9 mph 0.00 in Snow Light Snow
2:46 PM 30.2 °F 17.8 °F 26.6 °F 86% 29.46 in 1.5 mi NNW 19.6 mph 26.5 mph 0.00 in Snow Light Snow
2:53 PM 32.0 °F 19.5 °F 27.0 °F 82% 29.47 in 1.2 mi North 21.9 mph 28.8 mph 0.00 in Snow Light Snow
3:06 PM 30.2 °F 17.4 °F 26.6 °F 86% 29.46 in 1.0 mi North 20.7 mph 27.6 mph 0.00 in Snow Light Snow
3:25 PM 28.4 °F 16.2 °F 24.8 °F 86% 29.46 in 1.5 mi North 17.3 mph - 0.00 in Snow Light Snow
3:42 PM 30.2 °F 16.2 °F 26.6 °F 86% 29.46 in 2.0 mi North 25.3 mph 28.8 mph 0.00 in Snow Light Snow
3:53 PM 30.9 °F 18.1 °F 26.1 °F 82% 29.47 in 1.8 mi North 21.9 mph 32.2 mph 0.00 in Snow Light Snow
4:37 PM 28.4 °F 13.8 °F 24.8 °F 86% 29.47 in 0.8 mi North 25.3 mph 31.1 mph 0.00 in Snow Light Snow
4:50 PM 30.2 °F 16.8 °F 24.8 °F 80% 29.47 in 1.2 mi North 23.0 mph 33.4 mph 0.00 in Snow Light Snow
4:51 PM 30.0 °F 16.9 °F 25.0 °F 82% 29.47 in 1.2 mi North 21.9 mph 33.4 mph 0.00 in Snow Light Snow
5:51 PM 30.2 °F 18.9 °F 24.8 °F 80% 29.48 in 2.5 mi North 16.1 mph 26.5 mph 0.00 in Snow Light Snow
5:53 PM 30.0 °F 19.1 °F 24.1 °F 79% 29.48 in 2.5 mi NNE 15.0 mph 25.3 mph 0.00 in Snow Light Snow
6:40 PM 28.4 °F 13.8 °F 23.0 °F 80% 29.50 in 1.8 mi North 25.3 mph 32.2 mph 0.00 in Snow Light Snow
6:51 PM 30.2 °F 17.1 °F 23.0 °F 75% 29.50 in 2.0 mi North 21.9 mph 32.2 mph 0.00 in Snow Light Snow
6:53 PM 30.0 °F 16.6 °F 23.0 °F 75% 29.50 in 1.8 mi North 23.0 mph 32.2 mph 0.00 in Snow Light Snow
8:09 PM 30.2 °F 16.5 °F 21.2 °F 69% 29.54 in 2.0 mi NNW 24.2 mph 35.7 mph 0.00 in Snow Light Snow
8:26 PM 30.2 °F 16.5 °F 21.2 °F 69% 29.54 in 3.0 mi NNW 24.2 mph 35.7 mph 0.00 in Snow Light Snow
8:40 PM 30.2 °F 16.2 °F 21.2 °F 69% 29.54 in 2.5 mi North 25.3 mph 34.5 mph 0.00 in Snow Light Snow
8:51 PM 30.2 °F 16.8 °F 21.2 °F 69% 29.55 in 3.0 mi NNW 23.0 mph 34.5 mph 0.00 in Snow Light Snow
8:53 PM 30.0 °F 16.0 °F 21.0 °F 69% 29.55 in 3.0 mi NNW 25.3 mph 34.5 mph 0.00 in Snow Light Snow
9:53 PM 30.0 °F 16.9 °F 19.9 °F 66% 29.58 in 4.0 mi NNW 21.9 mph 35.7 mph 0.00 in Snow Light Snow
10:39 PM 28.4 °F 15.1 °F 21.2 °F 74% 29.60 in 2.0 mi NNW 20.7 mph 34.5 mph 0.00 in Snow Light Snow
10:46 PM 28.4 °F 15.1 °F 21.2 °F 74% 29.61 in 1.8 mi North 20.7 mph 38.0 mph 0.00 in Snow Light Snow
10:51 PM 28.4 °F 15.4 °F 21.2 °F 74% 29.61 in 2.0 mi NNW 19.6 mph 33.4 mph 0.00 in Snow Light Snow
10:53 PM 28.9 °F 16.1 °F 21.0 °F 72% 29.61 in 2.0 mi NNW 19.6 mph 33.4 mph 0.00 in Snow Light Snow
11:02 PM 28.4 °F 16.2 °F 21.2 °F 74% 29.61 in 1.8 mi NNW 17.3 mph 33.4 mph 0.00 in Snow Light Snow
11:14 PM 28.4 °F 15.8 °F 21.2 °F 74% 29.62 in 1.8 mi North 18.4 mph 41.4 mph 0.00 in Snow Light Snow
11:23 PM 28.4 °F 15.4 °F 21.2 °F 74% 29.63 in 2.0 mi NNW 19.6 mph 31.1 mph 0.00 in Snow Light Snow
11:46 PM 28.4 °F 17.0 °F 21.2 °F 74% 29.63 in 2.0 mi North 15.0 mph 28.8 mph 0.00 in Snow Light Snow
11:51 PM 28.4 °F 16.2 °F 19.4 °F 69% 29.63 in 3.0 mi NNW 17.3 mph 29.9 mph 0.00 in Snow Light Snow
11:53 PM 28.9 °F 15.8 °F 19.9 °F 69% 29.64 in 3.0 mi NNW 20.7 mph 31.1 mph 0.00 in Snow Light Snow